Location: ?????
(55.8833°N, 37.6500°E)
Time: 15:43:31
(UTC+00:00)

Lacrosse 5 - Pass Details

Date: 27 February 2020
Orbit: 715 x 724 km, 57.0° (Epoch: 21 March)

Event Time Altitude Azimuth Distance (km) Brightness Sun altitude
Rises 18:51:26 0° 251° (WSW) 3,116 5.6 -31.9°
Reaches altitude 10° 18:53:48 10° 251° (WSW) 2,198 4.7 -32.1°
Enters shadow 18:55:37 23° 251° (WSW) 1,519 3.8 -32.3°
